STARLINK-31910, 59664

Orbit data source: Space-Track

STARLINK-31910, 59664 is a payload satellite owned by SpaceX/Seattle (US) in LEO that was launched on Mon, 06 May 2024 UTC via an FALCON 9 launch vehicle from the Air Force Eastern Test Range (AFETR). Payload-class satellites include a variety of spacecraft equipped with specific instruments for various scientific and technological missions. These include communications satellites like Starlink; space stations such as the ISS; scientific satellites like the Hubble; Earth observation satellites from companies like Planet Labs, Umbra, and HawkEye 360; GPS; miniature CubeSats for education and research; and military/defense satellites.

Loading next visibility...
Identifier
59664, 2024-084L
Orbit
LEO
Country
Flag of USUS
Related business
Manufacturer
SpaceX/Seattle
Mission
Operational Commercial Communications
Bus & Motor
STARLINK V2M, Unknown motor
Mass
730 kg wet, ~700 kg dry
Launch date (UTC)
2024-05-06 (2 years ago)
Launch vehicle
FALCON 9
Launch site
Air Force Eastern Test Range (AFETR)
Object type
Payload
Rocket body
Debris
Shape & HBR
Box + 2 Pan, 17.7 m
Radar Cross Section
33.884 m², Large (>1 m²)

Expand to show TLE details & history
Last TLE update: 16 hours ago

TLE from 16 hours ago
0 STARLINK-31910
1 59664U 24084L   25348.21612783  .00001864  00000-0  77325-4 0  9997
2 59664  43.0044 164.2831 0002933 263.7295  96.3222 15.27555143 91308
Epoch: 2025-12-14T05:11Z
TLE epoch observation values (Epoch: 2025-12-14T05:11:13.444Z)
Latitude
-0.00006°
Longitude
3.34478°
Altitude
483.122 km
Speed
7.626 km/s
True Right ascension
10h 57m 07s
True Declination
0° 00' 00"
Sunlit
Object was in daylight at epoch
Visualization orbit readout
Latitude
Unknown
Longitude
Unknown
Altitude
Unknown
Speed
Unknown
Apparent Right ascension
Unknown
Apparent Declination
Unknown
Sunlit
N/A
Visualization observer readout
Local Sidereal Time
19:47:36
Azimuth
Unknown
Elevation
Unknown
Doppler factor
Unknown
Orbital elements
Apogee altitude
487.081 km
Perigee altitude
483.055 km
Semi-major axis
6,863.205 km
Eccentricity
0.00029
Inclination
43.0044°
RAAN
164.2831°
Arg. of periapsis
263.7295°
True anomaly
96.3556°
Mean anomaly
96.3222°
Eccentric anomaly
96.3389°
Mean motion
3.81727 °/min
Orbital period
94.31 mins
BSTAR
0.000077325
Loading maneuver chart data...
Computing Atmospheric mass density...
Loading historical data...
Loading historical data...
Loading historical data...
Loading historical data...
Loading historical data...
Loading historical data...
Loading historical data...

Documentation

Showing up to 5 results
|